Overview Statistics Trail Chart Weather Telemetry Raw packets
 

This is the latest recevied weather packets stored in our database for station/object W5DNT. If no packets are shown the sender has not sent any weather packets the latest 10 day(s).

<< 6 7 8 9 10 11 12 >>
Time Temp. Humidity Pressure Rain* Wind** Luminosity Snow
1788470113 35.56° C 51% 1008.3 hPa 0 mm - - -
1788469213 35° C 51% 1008.5 hPa 0 mm - - -
1788468311 35.56° C 50% 1008.6 hPa 0 mm - - -
1788467421 36.11° C 49% 1008.7 hPa 0 mm - - -
1788466510 36.11° C 49% 1008.9 hPa 0 mm - - -
1788465620 36.11° C 49% 1009 hPa 0 mm - - -
1788464713 36.67° C 49% 1009.3 hPa 0 mm - - -
1788463864 36.11° C 50% 1009.6 hPa 0 mm - - -
1788462962 35.56° C 51% 1009.7 hPa 0 mm - - -
1788462052 35.56° C 51% 1010.2 hPa 0 mm - - -
1788461153 35.56° C 51% 1010.5 hPa 0 mm - - -
1788460264 35.56° C 51% 1010.8 hPa 0 mm - - -
1788459340 35.56° C 51% 1010.9 hPa 0 mm - - -
1788458439 35.56° C 50% 1011.1 hPa 0 mm - - -
1788457533 35° C 51% 1011.2 hPa 0 mm - - -
1788456630 34.44° C 53% 1011.3 hPa 0 mm - - -
1788455727 33.89° C 54% 1011.6 hPa 0 mm - - -
1788454824 33.89° C 55% 1011.7 hPa 0 mm - - -
1788453922 33.89° C 54% 1011.6 hPa 0 mm - - -
1788453019 33.33° C 56% 1011.7 hPa 0 mm - - -
1788452115 32.78° C 58% 1011.7 hPa 0 mm - - -
1788451217 32.22° C 60% 1011.6 hPa 0 mm - - -
1788450310 31.67° C 62% 1011.4 hPa 0 mm - - -
1788449407 30.56° C 66% 1011.5 hPa 0 mm - - -
1788448501 30° C 68% 1011.4 hPa 0 mm - - -

* Rain latest hour (hover to see other rain measurements)
** Current wind speed in m/s (hover to see current wind gust speed)